Strona główna
METAR-TAF:

METAR-TAF

Lotnisko :

Ortonville Municipal Airport (Martinson Field)

Ortonville, Minnesota, Stany Zjednoczone

Szerokość geograficzna: 45-18-20N, Długość geograficzna: 096-25-28W, wysokość: 335 m

Aktualna obserwacja pogody

Raport powstał 29 minut temu, godzina 04:35 UTC
Wiatr 11 kt od północno-północny zachód
Temperatura 21°C
Wilgotność 49%
Ciśnienie 1014 hPa
Widzialność: 16.1 km
bezchmurnie

METAR: KVVV 280435Z AUTO 34011KT 10SM CLR 21/10 A2995 RMK AO2

czas: 00:04 (05:04 UTC)


TAF: brakujący

Obserwacja i prognoza pogody dla ponad 4000 lotnisk (raport METAR i TAF).

Dostępne stacje oznaczono żółtymi i czerwonymi punktami na mapie.

Najedź kursorem aby zobaczyć nazwę stacji.

Kliknij aby zobaczyć obserwacje i prognozy pogody.

Aby zmienić mapę: kliknij na zielony przycisk z czarnym krzyżykiem, aby powiększyć; na zielony przycisk z myślnikiem, aby pomniejszyć; na zielone strzałki, aby przejść do map sąsiednich.


METAR-TAF: